"Pseudo-MPEC" for P10SDwC

Created 2019 Oct 16 16:07:10 UT using Find_Orb

Click here for an explanation of pseudo-MPECs

 
 Astrometry: 
     P10SDwC  C2019 10 09HZmyR9d\/a6l1pB1],c82F=p20/AstrometryFXC9Wredacted;CF51
     P10SDwC  C2019 10 09lqbclick(ZI4hIF*`,HxsHxjs0(0X%J5Hp`0RtYJ!n8JnwheredTF51
     P10SDwC  C2019 10 09EbMG:=t$=V4Ofor[^e*.%n`(0!v#%DCRexplanationy_ywu#oQ7F51

Station data:
(F51) Pan-STARRS 1, Haleakala  (N20.707235 W156.255910)  US/Hawaii.
   Observers N. Primak, A. Schultz, S. Watters, J. Thiel, T. Goggia. Measurer
   PS1 Science Consortium. 1.8-m Ritchey-Chrétien + CCD.

Orbital elements:  P10SDwC
   Perihelion 2019 Oct 4.118849 +/- 35.9 TT =  2:51:08 (JD 2458760.618849)
Epoch 2019 Oct 10.0 TT = JDT 2458766.5   Earth MOID: 0.3872   Ju: 0.8240
M   1.03746231 +/- 48               Ma: 0.0323                AutoNEOCP
n   0.17640464 +/- 0.397            Peri.  318.56869 +/- 130
a   3.14868607 +/- 4.9              Node    73.99999 +/- 31
e   0.5752894 +/- 0.235             Incl.   15.25329 +/- 36
P   5.59                   H 21.1   G  0.15   U 12.1  SR
q 1.33728027 +/- 0.44    Q 4.96009187 +/- 24.5
From 3 observations 2019 Oct. 9 (42.6 min); mean residual 0".04
Residuals in arcseconds: 
191009 F51  .02+  .02-    191009 F51  .08-  .05+    191009 F51  .01+  .03-    

Ephemerides (geocentric):
Date (UTC) HH   RA              Dec         delta   r     elong  mag " sig PA
---- -- -- --  -------------   -----------  ------ ------ -----  --- ---- ---
2019 10 16 16  05 40 47.149   +04 16 40.37  .56444 1.3447 116.1 22.1  66d   1
2019 10 16 17  05 40 51.207   +04 17 31.05  .56432 1.3448 116.2 22.1  66d   1
2019 10 16 18  05 40 55.261   +04 18 21.76  .56419 1.3448 116.2 22.1  67d   1
2019 10 16 19  05 40 59.311   +04 19 12.51  .56406 1.3449 116.2 22.1  67d   1
2019 10 16 20  05 41 03.355   +04 20 03.29  .56393 1.3449 116.2 22.1  67d   1
2019 10 16 21  05 41 07.395   +04 20 54.11  .56381 1.3450 116.3 22.1  67d   1
2019 10 16 22  05 41 11.431   +04 21 44.96  .56368 1.3450 116.3 22.1  67d   1
2019 10 16 23  05 41 15.461   +04 22 35.85  .56356 1.3451 116.3 22.1  67d   1
2019 10 17 00  05 41 19.487   +04 23 26.77  .56343 1.3451 116.3 22.1  67d   1
2019 10 17 01  05 41 23.509   +04 24 17.72  .56330 1.3452 116.4 22.1  67d   1
2019 10 17 02  05 41 27.525   +04 25 08.72  .56318 1.3452 116.4 22.1  67d   1
2019 10 17 03  05 41 31.537   +04 25 59.74  .56305 1.3453 116.4 22.1  67d   1
2019 10 17 04  05 41 35.545   +04 26 50.80  .56292 1.3453 116.4 22.1  67d   1
2019 10 17 05  05 41 39.547   +04 27 41.90  .56280 1.3454 116.5 22.1  67d   1
2019 10 17 06  05 41 43.545   +04 28 33.03  .56267 1.3454 116.5 22.1  67d   1
2019 10 17 07  05 41 47.538   +04 29 24.20  .56255 1.3455 116.5 22.1  67d   1
2019 10 17 08  05 41 51.527   +04 30 15.40  .56242 1.3455 116.5 22.1  67d   1
2019 10 17 09  05 41 55.511   +04 31 06.64  .56230 1.3456 116.6 22.1  67d   1
2019 10 17 10  05 41 59.490   +04 31 57.91  .56217 1.3457 116.6 22.1  68d   1
2019 10 17 11  05 42 03.464   +04 32 49.22  .56204 1.3457 116.6 22.1  68d   1
2019 10 17 12  05 42 07.434   +04 33 40.56  .56192 1.3458 116.6 22.1  68d   1
2019 10 17 13  05 42 11.399   +04 34 31.94  .56179 1.3458 116.7 22.1  68d   1
2019 10 17 14  05 42 15.359   +04 35 23.35  .56167 1.3459 116.7 22.1  68d   1
2019 10 17 15  05 42 19.314   +04 36 14.80  .56154 1.3459 116.7 22.1  68d   1
2019 10 17 16  05 42 23.265   +04 37 06.29  .56142 1.3460 116.7 22.1  66d   2
2019 10 17 17  05 42 27.211   +04 37 57.81  .56130 1.3460 116.7 22.1  66d   2
2019 10 17 18  05 42 31.152   +04 38 49.36  .56117 1.3461 116.8 22.1  66d   2
2019 10 17 19  05 42 35.089   +04 39 40.95  .56105 1.3461 116.8 22.1  66d   2
2019 10 17 20  05 42 39.020   +04 40 32.58  .56092 1.3462 116.8 22.1  66d   2
2019 10 17 21  05 42 42.947   +04 41 24.24  .56080 1.3462 116.8 22.1  66d   2
2019 10 17 22  05 42 46.869   +04 42 15.93  .56067 1.3463 116.9 22.1  66d   2
2019 10 17 23  05 42 50.787   +04 43 07.66  .56055 1.3463 116.9 22.1  66d   2
2019 10 18 00  05 42 54.699   +04 43 59.43  .56042 1.3464 116.9 22.1  66d   2
2019 10 18 01  05 42 58.607   +04 44 51.23  .56030 1.3465 116.9 22.1  66d   2
2019 10 18 02  05 43 02.510   +04 45 43.07  .56018 1.3465 117.0 22.1  66d   2
2019 10 18 03  05 43 06.409   +04 46 34.94  .56005 1.3466 117.0 22.1  66d   2
2019 10 18 04  05 43 10.302   +04 47 26.85  .55993 1.3466 117.0 22.1  66d   2
2019 10 18 05  05 43 14.191   +04 48 18.80  .55981 1.3467 117.0 22.1  66d   2
2019 10 18 06  05 43 18.075   +04 49 10.77  .55968 1.3467 117.1 22.1  66d   2
2019 10 18 07  05 43 21.954   +04 50 02.79  .55956 1.3468 117.1 22.1  66d   2
2019 10 18 08  05 43 25.828   +04 50 54.84  .55944 1.3468 117.1 22.1  66d   1
2019 10 18 09  05 43 29.698   +04 51 46.93  .55931 1.3469 117.1 22.1  66d   1
2019 10 18 10  05 43 33.563   +04 52 39.05  .55919 1.3470 117.2 22.1  66d   1
2019 10 18 11  05 43 37.423   +04 53 31.21  .55907 1.3470 117.2 22.1  66d   1
2019 10 18 12  05 43 41.278   +04 54 23.40  .55894 1.3471 117.2 22.1  67d   1
2019 10 18 13  05 43 45.128   +04 55 15.63  .55882 1.3471 117.2 22.1  67d   1
2019 10 18 14  05 43 48.973   +04 56 07.89  .55870 1.3472 117.3 22.1  67d   1
2019 10 18 15  05 43 52.814   +04 57 00.19  .55858 1.3472 117.3 22.1  67d   1